User: anonymous   Login
Location: Unspecified
(0.0000°N, 0.0000°E)
Time: 13:35:58
(UTC+00:00)
Language:

LES 6 - Orbit

View from above orbital plane
View from above orbital plane
View from above satellite
View from above satellite

Ground track
Ground track

The orbit data is extracted from the following two-line orbital elements,

1  3431U 68081D   18199.38923615 -.00000260 +00000-0 +00000-0 0  9998
2  3431 005.7781 309.7687 0010428 341.6018 066.1237 01.00336155091806
Epoch (UTC): 18 July 2018 09:20:30
Eccentricity: 0.0010428
inclination: 5.7781°
perigee height: 35724 km
apogee height: 35812 km
right ascension of ascending node: 309.7687°
argument of perigee: 341.6018°
revolutions per day: 1.00336155
mean anomaly at epoch: 66.1237°
orbit number at epoch: 9180

The dashed part of the orbit path shows where the satellite is in the earth's shadow,  

DLR